Regional Weather Roundup
Issued by NWS

Home | Current Version | Previous Version | Graphics & Text | Print | Product List | Glossary Off
Versions: 1 2 3 4 5 6 7 8 9 10 11 12 13 14 15 16 17 18 19 20 21 22 23 24 25 26 27 28 29 30 31 32 33 34 35 36 37 38 39 40 41 42 43 44 45 46 47 48 49 50

000
ASUS43 KDTX 210710
RWRMI
MICHIGAN HOURLY REGIONAL WEATHER ROUNDUP
NATIONAL WEATHER SERVICE DETROIT/PONTIAC MI
300 AM EDT FRI JUL 21 2017

NOTE: "FAIR" INDICATES FEW OR NO CLOUDS BELOW 12,000 FEET WITH NO
SIGNIFICANT WEATHER AND/OR OBSTRUCTION TO VISIBILITY.

MIZ047>049-052>055-059>063-066>070-074>076-081>083-210800-
SOUTHEAST LOWER MICHIGAN

CITY           SKY/WX    TMP DP  RH WIND       PRES   REMARKS
ADRIAN         CLEAR     69  67  93 CALM      29.96F
ALMA           CLEAR     66  65  94 CALM      29.96F
ANN ARBOR      FOG       66  66 100 CALM      29.95F VSB 1/4
BAD AXE        PTCLDY    67  66  97 CALM      29.95S
CARO           CLEAR     65  63  94 CALM      29.95S FOG
DETROIT CITY   CLEAR     76  71  85 W5        29.94F
DETROIT        CLEAR     74  71  91 W5        29.95S
FLINT          CLEAR     70  67  90 NW5       29.96S
GROSSE ILE     MOCLDY    75  71  87 CALM      29.93F
HILLSDALE      CLEAR     68  66  94 N3        29.98S
HOWELL         CLEAR     69  67  96 CALM      29.96F

CITY           SKY/WX    TMP DP  RH WIND       PRES   REMARKS
JACKSON        LGT RAIN  68  66  93 W5        29.97F
LAMBERTVILLE   CLEAR     72  70  93 CALM      29.95S
LANSING        CLEAR     71  66  84 NW3       29.97S
LAPEER         FAIR      67  65  96 N6        29.96S
MASON          FOG       67  67 100 CALM      29.97S VSB 1/4
MONROE         PTCLDY    71  70  97 CALM      29.94S
MT. CLEMENS    CLEAR     71  70  96 CALM      29.93S
PONTIAC        CLEAR     73  70  90 W3        29.95S
PORT HOPE        N/A     69  66  90 W3        29.93S
PORT HURON     CLEAR     68  66  94 CALM      29.94S
TRI CITIES     MOCLDY    73  70  90 CALM      29.96S
MIDLAND        FAIR      65  65  99 CALM      29.95S
TROY           CLEAR     75  70  84 W3        29.96F
SAGINAW HB     CLEAR     68  64  88 NW6       29.95F
$$
MIZ043>046-050>051-056>058-064>065-071>073-077>080-210800-
SOUTHWEST LOWER MICHIGAN

CITY           SKY/WX    TMP DP  RH WIND       PRES   REMARKS
BATTLE CREEK   CLEAR     68  68 100 CALM      29.98F
BENTON HARBOR  CLEAR     66  64  93 CALM      29.97R
BIG RAPIDS     PTCLDY    63  61  93 CALM      29.97S
COLDWATER      FOG       66  66 100 CALM      29.97F VSB 1/4
FREMONT        FOG       62  62 100 CALM      29.98R VSB 1/4
HOLLAND        CLEAR     65  63  93 CALM      29.98R
GRAND RAPIDS   CLEAR     69  67  93 N6        29.97S
IONIA          FAIR      70  67  91 NW3       29.96F
KALAMAZOO      CLEAR     66  63  90 CALM      29.98S FOG
LUDINGTON      FOG       64  64 100 CALM      29.96R VSB 1/2
MARSHALL       FOG       67  66  97 CALM      29.97F VSB 1/2
MOUNT PLEASANT CLEAR     67  65  92 CALM      29.96S
MUSKEGON       CLEAR     64  63  96 CALM      29.98R FOG
SOUTH HAVEN    CLEAR     64  64  97 CALM      29.97S
$$
MIZ016>042-210800-
NORTHERN LOWER MICHIGAN

CITY           SKY/WX    TMP DP  RH WIND       PRES   REMARKS
ALPENA         CLOUDY    65  64  97 W5        29.96S
BEAVER ISLAND  FOG       59  59  99 CALM      29.97R VSB 1/2
BELLAIRE         N/A     60  59  96 CALM      29.97S FOG
CADILLAC       CLEAR     60  57  89 CALM      29.98S
CHARLEVOIX     CLEAR     63  63 100 CALM      29.99S FOG
FRANKFORT      CLEAR     65  65 100 CALM      29.95F
GAYLORD        CLEAR     63  58  83 CALM      29.99R
GRAYLING       CLEAR     56  54  91 CALM      29.99S
HARBOR SPRINGS CLOUDY    63  63 100 CALM      29.96S
HOUGHTON LAKE  CLEAR     59  57  93 CALM      29.99R
MANISTEE       CLEAR     62  61  96 E5        29.96R
OSCODA         CLEAR     64  61  89 NW5       29.95R
PELLSTON       CLEAR     59  59 100 CALM      29.96S FOG
ROGERS CITY    CLEAR     63  61  94 CALM      29.96S
TRAVERSE CITY  CLEAR     64  62  93 CALM      29.96R
$$
MIZ007>008-015-210800-
EASTERN UPPER MICHIGAN

CITY           SKY/WX    TMP DP  RH WIND       PRES   REMARKS
KINROSS        CLEAR     58  57  97 W6        29.95F
MACKINAC ISLAN CLEAR     62  61  97 N6        29.95F
NEWBERRY       CLEAR     55  54  97 SW3       29.95F
S. S. MARIE    CLEAR     59  57  93 W3        29.94F
MUNISING         N/A     59  59 100 S8        29.94F
$$
MIZ004>006-011>014-085-210800-
CENTRAL UPPER MICHIGAN

CITY           SKY/WX    TMP DP  RH WIND       PRES   REMARKS
MANISTIQUE     CLEAR     56  53  90 CALM      29.95S
ESCANABA       CLEAR     61  60  97 CALM      29.95S
MENOMINEE      CLEAR     64  63  96 CALM      29.97S
SAWYER-GWINN   CLEAR     58  56  94 CALM      29.97S
$$
MIZ001>003-009>011-084-210800-
WESTERN UPPER MICHIGAN

CITY           SKY/WX    TMP DP  RH WIND       PRES   REMARKS
IRON MOUNTAIN  PTCLDY    59  55  87 CALM      29.96F
HOUGHTON       CLEAR     60  56  86 NW6       29.94F
COPPER HARBOR    N/A     62  55  77 W7        29.93S
IRONWOOD       CLEAR     59  59 100 CALM      29.98F FOG
$$

ABBREVIATIONS USED IN REMARKS
   TC - TEMPERATURE IN CELSIUS
  WCI - WIND CHILL INDEX
   HX - HEAT INDEX
  VSB - VISIBILITY




USA.gov is the U.S. government's official web portal to all federal, state and local government web resources and services.